Weather History for Hoquiam, WA

Change the Weather History Date:

Wednesday, December 18, 2013

  Actual Average Record
Temperature  
Mean Temperature 39 °F 41 °F  
Max Temperature 46 °F 46 °F 60 °F (2004)
Min Temperature 31 °F 37 °F 25 °F (1964)
Degree Days  
Heating Degree Days 26 24  
Month to date heating degree days 517 419  
Cooling Degree Days 0 0  
Month to date cooling degree days 0 0  
Year to date cooling degree days 20 23  
Moisture  
Dew Point 38 °F    
Average Humidity 72    
Maximum Humidity 92    
Minimum Humidity 51    
Precipitation  
Precipitation 0.01 in 0.31 in 1.57 in (1960)
Month to date precipitation 2.20 5.79  
Year to date precipitation 51.93 63.38  
Sea Level Pressure  
Sea Level Pressure 30.14 in    
Wind  
Wind Speed 5 mph (West)    
Max Wind Speed 18 mph    
Max Gust Speed 24 mph    
Visibility 6 miles    
Events Rain    
T = Trace of Precipitation, MM = Missing Value Source: NWS Daily Summary

Daily Weather History Graph

Daily Weather History Graph

Search for Another Location

Airport:

Trip Planner

Search our weather history database for the weather conditions in past years. The results will help you decide how hot, cold, wet, or windy it might be!

Date:

Astronomy

Dec. 18, 2013 Rise Set
Actual Time 7:57 AM PST 4:28 PM PST
Civil Twilight 7:21 AM PST 5:03 PM PST
Nautical Twilight 6:42 AM PST 5:42 PM PST
Astronomical Twilight 6:05 AM PST 6:19 PM PST
Moon 6:10 PM PST (12/18) 8:35 AM PST (12/18)
Length of Visible Light 9h 42m
Length of Day
8h 31m
Full, 98% of the Moon is Illuminated
Dec 18
Full
Dec 25
Last Quarter
Jan 1
New
Jan 7
First Quarter
Jan 15
Full

Hourly Weather History & Observations

Time (PST) Temp. Windchill Dew Point Humidity Pressure Visibility Wind Dir Wind Speed Gust Speed Precip Events Conditions
12:04 AM 60.8 °F - 44.6 °F 55% 30.15 in 2.0 mi West 4.6 mph - N/A   Haze
12:22 AM 60.8 °F - 42.8 °F 52% 30.15 in 5.0 mi West 6.9 mph - N/A   Haze
12:41 AM 57.2 °F - 42.8 °F 59% 30.15 in 6.0 mi WNW 6.9 mph - N/A   Haze
12:53 AM 57.0 °F - 43.0 °F 59% 30.17 in 9.0 mi WNW 5.8 mph - N/A   Overcast
1:30 AM 55.4 °F - 42.8 °F 63% 30.16 in 9.0 mi WNW 8.1 mph - N/A   Overcast
1:53 AM 55.9 °F - 42.1 °F 60% 30.17 in 9.0 mi WSW 3.5 mph - N/A   Overcast
2:26 AM 55.4 °F - 39.2 °F 54% 30.16 in 8.0 mi SW 3.5 mph - N/A   Scattered Clouds
2:53 AM 48.0 °F - 39.9 °F 74% 30.17 in 5.0 mi Calm Calm - N/A   Haze
3:09 AM 44.6 °F - 39.2 °F 81% 30.16 in 5.0 mi Calm Calm - N/A   Haze
3:51 AM 55.4 °F - 42.8 °F 63% 30.15 in 6.0 mi West 3.5 mph - N/A   Haze
3:53 AM 55.0 °F - 42.1 °F 62% 30.17 in 6.0 mi West 3.5 mph - N/A   Haze
4:26 AM 46.4 °F - 41.0 °F 81% 30.15 in 4.0 mi Calm Calm - N/A   Haze
4:53 AM 52.0 °F - 41.0 °F 66% 30.16 in 6.0 mi WSW 3.5 mph - N/A   Haze
5:24 AM 55.4 °F - 42.8 °F 63% 30.14 in 5.0 mi Calm Calm - N/A   Haze
5:53 AM 54.0 °F - 42.1 °F 64% 30.15 in 6.0 mi WSW 3.5 mph - 0.00 in Rain Light Rain
6:13 AM 55.4 °F - 42.8 °F 63% 30.14 in 5.0 mi WSW 3.5 mph - 0.00 in   Haze
6:53 AM 55.0 °F - 42.1 °F 62% 30.14 in 4.0 mi West 4.6 mph - 0.00 in   Haze
7:53 AM 50.0 °F - 42.1 °F 74% 30.13 in 6.0 mi Calm Calm - 0.00 in   Haze
8:53 AM 59.0 °F - 41.0 °F 51% 30.15 in 6.0 mi West 5.8 mph - N/A   Haze
9:53 AM - - - N/A% 30.14 in 6.0 mi NW 6.9 mph - N/A   Haze
10:53 AM - - - N/A% 30.14 in 6.0 mi West 4.6 mph - N/A   Haze
11:53 AM - - - N/A% 30.12 in 7.0 mi West 10.4 mph - N/A   Overcast
12:08 PM - - - N/A% 30.10 in 7.0 mi West 6.9 mph - N/A   Overcast
12:53 PM - - - N/A% 30.10 in 7.0 mi West 10.4 mph - N/A   Mostly Cloudy
2:53 PM 44.1 °F 37.7 °F 33.1 °F 65% 30.09 in 7.0 mi West 12.7 mph - N/A   Partly Cloudy
3:53 PM 42.1 °F 36.6 °F 32.0 °F 67% 30.09 in 7.0 mi West 9.2 mph - N/A   Clear
4:53 PM 39.9 °F 35.8 °F 32.0 °F 73% 30.10 in 8.0 mi WNW 5.8 mph - N/A   Scattered Clouds
5:53 PM 39.0 °F 35.7 °F 32.0 °F 76% 30.10 in 9.0 mi WNW 4.6 mph - 0.01 in   Clear
6:53 PM 35.1 °F 32.2 °F 32.0 °F 89% 30.09 in 8.0 mi West 3.5 mph - N/A   Clear
7:53 PM 36.0 °F 30.3 °F 30.9 °F 82% 30.11 in 9.0 mi North 6.9 mph - N/A   Clear
8:53 PM 33.1 °F - 30.0 °F 89% 30.15 in 8.0 mi Calm Calm - N/A   Clear
9:53 PM 32.0 °F 26.4 °F 30.0 °F 92% 30.16 in 7.0 mi ENE 5.8 mph - N/A   Clear
10:53 PM 35.1 °F 31.0 °F 30.0 °F 82% 30.17 in 3.0 mi NE 4.6 mph - N/A   Haze
11:53 PM 39.0 °F - 30.9 °F 73% 30.20 in 6.0 mi Calm Calm - N/A   Haze